Temp
12 12 12 12 12 13 13 14 14 14 14 15 15 15 15 15 15 15 15 17 18 18 19 18 18 19 19 18 18 18 18 19 21 22 22 22 23 22 20 20 18 17 17 18 19
12 12 12 12 12 12 13 14 14 14 14 14 14 15 15 15 14 14 17 17 18 17 18 17 17 18 16 17 17 17 17 20 21 21 22 21 22 22 21 20 18 18 16 17 18
11 12 12 11 11 12 13 13 14 14 14 14 14 14 15 15 13 14 17 17 17 17 18 17 17 17 17 17 17 17 18 20 21 21 20 21 22 21 19 20 19 18 16 15 16
11 11 12 11 11 11 12 13 14 14 14 14 14 14 14 14 14 16 18 17 17 17 17 17 16 16 16 17 17 17 17 18 20 19 20 21 20 22 20 21 21 18 16 16 16
11 11 12 12 11 11 11 12 13 13 13 13 13 14 13 12 13 16 16 16 16 16 17 15 16 15 16 15 16 17 18 18 18 18 19 20 21 21 21 21 17 16 15 16 16
11 11 11 12 11 11 11 11 12 13 13 13 13 13 13 13 16 16 16 15 15 15 16 16 15 15 15 15 16 17 17 17 19 19 20 21 21 21 21 18 16 15 15 15 16
11 11 11 12 12 11 11 11 12 13 13 13 13 13 13 15 16 16 15 14 15 16 14 16 17 16 14 15 15 16 17 17 17 19 19 20 19 19 20 17 16 15 14 14 15
11 11 11 11 11 11 11 11 11 12 13 13 13 12 12 14 15 15 15 14 14 15 16 16 17 16 16 16 16 16 16 15 18 18 19 19 19 20 19 16 16 15 14 14 15
10 11 11 11 11 11 11 11 11 12 12 13 11 11 13 14 14 14 15 14 14 14 15 15 17 15 15 14 14 14 13 14 16 17 19 19 18 20 19 17 17 15 14 14 15
8 10 11 11 11 11 11 11 11 11 11 11 10 11 10 12 14 14 15 15 13 13 13 14 14 13 12 13 13 13 14 14 14 18 16 17 16 18 18 17 17 16 14 14 15
8 9 11 10 10 11 11 10 9 8 10 12 12 12 11 13 13 13 15 13 12 12 13 13 14 14 13 13 15 14 14 14 15 16 17 15 17 19 19 17 16 15 15 15 15
9 9 11 10 10 10 10 9 11 12 10 11 11 12 11 13 12 11 13 12 12 13 12 13 14 15 14 14 14 14 14 14 15 16 15 15 16 16 16 16 17 17 16 16 15
8 9 10 10 10 9 10 10 12 13 11 11 11 12 11 12 12 12 12 11 12 14 13 15 15 15 14 13 13 13 13 14 15 15 15 16 15 16 16 16 17 15 18 17 17
8 8 9 10 9 9 9 12 13 14 7 10 10 11 10 11 12 12 12 13 12 13 12 13 14 14 14 14 14 13 13 14 14 15 13 15 15 16 17 17 16 18 18 17 17
8 8 9 9 10 9 10 12 13 12 8 9 9 12 9 11 10 10 12 12 12 12 12 13 12 14 13 14 14 14 14 14 14 14 14 15 15 15 16 17 16 17 18 18 18
7 8 9 10 9 10 10 11 12 9 6 9 9 10 10 10 10 10 12 12 12 12 12 13 13 14 13 14 14 13 14 13 12 13 14 16 14 16 17 16 16 17 17 18 18
6 7 9 9 9 10 10 10 9 9 6 9 10 10 11 11 9 10 12 12 13 12 12 12 13 13 14 14 14 14 13 14 14 14 14 15 13 17 17 16 16 18 17 17 15
8 8 9 10 10 9 10 9 9 4 6 9 11 10 11 11 10 10 11 12 13 12 12 12 12 12 13 13 13 13 15 14 14 13 14 12 14 16 15 18 19 18 16 15 15
8 9 8 9 9 9 9 9 7 6 7 11 11 10 10 10 12 10 9 11 13 11 12 11 13 13 13 13 14 12 13 14 13 5 10 12 13 15 14 15 15 17 17 15 15
5 8 8 9 9 10 9 9 5 8 10 11 10 11 10 10 9 10 9 11 11 12 13 12 12 12 12 13 13 14 14 13 13 13 12 13 12 16 16 15 17 19 18 14 13
7 8 8 9 9 9 8 5 6 8 9 11 8 8 11 10 10 10 9 11 11 11 12 12 11 10 12 12 14 13 13 13 13 12 13 13 16 13 17 17 18 18 16 14 13
6 6 8 9 8 7 9 6 8 7 7 7 7 8 9 11 9 10 9 11 10 11 11 12 11 9 11 12 12 14 14 14 13 13 12 11 16 15 14 14 13 15 14 14 13
7 8 8 9 7 8 7 7 7 7 7 7 7 8 8 9 9 10 9 10 10 11 10 12 11 11 10 10 10 12 13 14 14 13 14 12 17 14 13 14 14 13 13 14 14
8 8 7 5 4 8 7 7 6 7 7 7 6 7 7 8 6 8 9 10 10 11 11 12 10 11 11 11 12 12 13 13 13 13 14 15 16 16 16 16 14 13 13 13 13
4 5 4 6 4 8 7 8 7 6 6 7 7 8 6 7 5 7 8 9 9 10 10 11 10 10 12 11 11 12 12 12 12 13 12 15 16 17 17 16 16 13 12 13 14
4 5 4 4 7 8 8 7 8 6 7 7 7 7 8 6 8 6 7 8 10 9 9 10 9 10 11 10 11 11 12 12 13 13 13 13 15 18 16 14 14 13 13 12 13
1 3 5 7 7 8 4 8 7 7 6 6 7 7 8 7 8 8 8 8 9 9 9 8 9 9 8 10 9 10 11 12 12 13 14 14 16 16 16 15 15 13 13 13 12
Height
774 777 782 785 788 791 793 796 800 803 806 811 815 819 822 824 826 828 827 829 829 830 828 829 829 829 828 830 830 830 848 851 840 837 836 826 826 822 823 828 829 828 829 828 830
766 771 777 780 784 787 790 793 796 800 803 808 813 818 821 823 827 826 824 826 827 829 829 830 830 831 835 835 834 838 848 842 829 828 831 830 826 825 827 830 833 830 828 828 830
760 764 769 774 779 782 786 790 794 797 801 805 811 816 819 823 828 820 822 824 827 827 831 831 831 833 837 837 836 837 843 832 828 824 824 828 826 824 831 833 828 828 828 829 831
752 757 762 768 774 778 782 787 791 794 798 802 808 812 818 822 830 816 817 822 826 827 831 830 833 837 841 841 837 841 835 832 826 827 824 828 827 826 827 823 818 820 822 827 831
743 750 755 760 768 773 778 783 788 790 794 799 807 808 814 821 819 816 816 820 824 826 828 831 833 838 841 841 841 841 833 830 826 827 829 824 827 826 825 820 821 821 825 826 828
734 741 748 754 760 767 773 780 785 787 791 797 799 805 809 817 814 816 815 817 821 824 827 830 832 835 839 840 842 836 833 831 827 827 828 828 825 824 820 820 824 824 825 826 826
725 733 741 749 755 761 769 775 783 785 788 795 799 801 807 809 810 814 813 816 820 823 826 830 831 834 838 842 837 836 839 836 831 828 828 828 833 830 818 821 825 826 827 827 825
714 724 733 742 750 756 765 773 780 784 788 794 798 803 802 806 809 813 815 819 821 824 827 830 831 833 836 837 838 842 843 849 830 831 826 832 837 823 818 821 824 827 829 827 825
705 714 725 735 743 751 760 770 779 784 789 794 800 802 803 805 808 811 814 816 821 824 829 830 831 836 838 845 850 848 856 854 842 830 830 830 832 818 815 819 822 823 824 824 824
699 707 715 726 736 748 757 768 779 786 792 796 799 807 802 798 804 809 813 815 818 823 831 833 836 841 847 848 852 852 851 850 848 831 835 836 830 821 817 819 817 818 819 820 819
691 697 707 718 731 743 754 769 783 793 788 779 781 787 787 794 804 808 811 815 819 824 831 835 837 833 834 839 836 842 844 846 840 834 835 837 829 819 816 819 820 819 817 815 813
681 685 696 708 726 736 745 752 749 754 774 780 782 788 790 791 803 807 810 817 820 823 830 836 826 827 835 838 840 843 844 845 840 834 839 836 830 819 817 816 811 810 810 807 807
676 686 689 703 720 731 731 746 753 758 775 781 781 785 790 792 798 802 808 815 818 822 824 823 821 823 832 839 843 844 846 844 842 839 834 834 830 815 811 807 803 802 798 797 795
669 675 683 698 717 722 733 745 750 757 789 780 784 785 788 789 798 798 804 809 820 819 827 828 820 823 829 832 837 843 841 840 843 846 852 834 836 813 804 802 800 792 790 790 790
659 664 673 686 695 710 723 739 748 755 792 777 781 776 783 790 795 801 802 807 814 814 822 819 822 824 828 826 832 835 834 839 842 847 845 838 842 809 802 799 795 786 782 780 779
650 659 667 683 695 712 726 736 746 770 791 769 768 777 784 791 795 798 801 806 809 816 817 815 814 815 819 823 825 832 839 843 848 850 849 823 838 801 797 795 787 780 776 772 771
644 651 659 671 682 705 718 734 756 756 772 762 759 769 775 783 796 794 794 798 802 813 811 816 814 816 815 821 825 829 842 844 844 845 835 816 835 796 787 784 782 773 771 765 765
637 645 655 669 687 701 716 731 739 772 769 752 752 768 772 779 787 794 795 799 799 806 809 813 820 817 817 817 822 828 829 834 836 839 825 825 821 788 778 768 764 764 763 763 761
630 636 651 663 682 700 712 724 736 746 747 739 754 765 771 778 777 791 799 794 792 803 806 813 810 806 810 813 816 827 823 822 831 883 852 823 803 782 777 775 769 763 757 757 755
626 629 646 662 682 695 707 713 739 733 731 736 747 755 761 769 782 786 797 787 793 795 796 805 808 809 811 810 810 812 816 831 830 831 838 815 811 784 772 773 764 754 749 751 751
611 630 647 661 684 696 700 725 734 729 729 734 753 759 754 763 773 778 786 786 786 795 797 799 810 823 810 808 807 813 816 821 817 824 819 811 786 775 761 758 754 747 747 749 748
610 630 642 660 680 696 700 717 720 734 736 743 751 756 755 760 775 777 785 782 783 787 794 798 810 823 811 805 804 801 801 806 812 810 814 821 775 755 758 759 760 750 749 745 745
611 623 652 664 674 692 707 716 721 730 736 744 749 749 758 764 778 776 780 779 781 783 792 796 804 812 816 815 810 801 802 802 798 808 797 814 752 750 757 757 752 752 747 744 745
609 627 655 675 685 685 698 712 726 730 737 742 750 752 762 769 777 775 778 780 781 781 784 789 800 799 795 798 792 797 794 799 803 799 780 786 742 753 753 753 755 751 749 744 742
620 640 649 667 688 687 700 707 717 733 735 738 747 747 759 775 787 782 783 786 787 785 790 792 793 799 790 794 794 789 788 791 794 783 793 754 758 740 750 754 750 750 754 749 747
622 636 654 674 676 686 696 709 709 731 731 739 743 753 750 767 764 781 780 784 783 788 794 792 797 792 790 794 790 787 783 783 773 771 778 761 756 727 742 745 749 748 752 751 744
626 634 646 669 680 685 710 706 714 723 737 737 741 749 754 763 764 768 773 777 780 785 790 795 794 795 799 786 796 781 758 765 772 765 757 757 723 740 742 741 738 742 741 741 742
Wind_Speed
36 35 33 32 31 30 27 25 25 25 27 27 24 22 21 18 13 10 8 7 9 3 3 3 1 2 3 3 3 2 3 2 5 4 4 4 1 1 2 5 2 3 4 2 27
41 38 36 33 34 32 29 27 25 26 26 27 26 24 22 18 13 11 11 14 11 7 3 4 1 3 3 2 2 3 3 5 3 5 1 3 1 5 3 3 1 1 2 9 32
42 40 39 35 33 34 32 28 27 26 27 27 27 25 23 19 3 7 25 13 11 10 6 4 5 2 2 2 1 2 5 3 2 2 4 3 1 2 6 3 6 7 6 11 17
43 44 40 38 35 33 33 31 27 26 27 27 29 27 24 19 9 5 21 23 16 12 9 6 3 3 2 2 1 1 5 4 2 4 3 4 5 2 4 5 3 8 11 15 13
46 44 44 42 37 34 31 32 30 26 26 28 28 30 26 5 6 4 4 25 19 16 12 5 4 4 5 3 2 2 3 3 3 6 7 0 4 3 5 4 3 10 11 13 16
48 46 46 44 40 36 32 30 31 29 27 27 30 30 16 16 9 7 5 23 20 19 11 8 6 4 3 3 4 3 3 3 4 2 4 3 2 2 5 3 5 8 11 10 15
49 49 48 47 42 38 33 31 30 31 27 27 28 29 9 11 13 12 6 23 21 18 6 9 3 3 5 2 4 1 2 5 5 2 2 1 5 7 5 4 6 7 6 7 13
51 50 50 48 44 40 34 32 28 29 28 27 27 18 5 19 10 14 13 15 19 15 4 9 3 4 2 1 3 3 1 2 3 6 5 6 11 10 6 8 8 8 7 7 11
43 53 52 50 47 41 36 31 26 25 25 24 20 10 6 20 11 20 18 16 17 12 8 4 6 2 1 3 1 2 3 3 6 6 2 6 7 9 9 9 9 8 9 11 9
37 52 56 52 49 43 37 30 23 21 18 16 9 4 4 9 17 19 18 19 6 11 4 1 3 3 1 4 7 5 3 3 6 4 5 7 13 9 5 6 10 10 10 11 12
41 37 56 52 50 44 39 30 10 3 12 17 16 2 7 14 20 14 22 13 5 3 6 3 4 13 15 4 0 4 4 7 2 6 4 8 17 18 13 6 9 9 9 12 14
41 44 59 54 52 48 45 11 29 5 19 4 11 4 5 14 7 6 16 7 5 8 6 4 17 9 7 3 1 1 1 2 4 6 5 8 14 11 11 8 10 13 11 13 8
38 44 52 54 53 49 45 25 28 32 9 5 4 15 5 8 6 17 14 6 6 12 16 15 2 13 8 5 7 5 7 2 3 6 3 3 10 14 7 12 12 10 13 11 15
43 48 59 57 46 43 30 28 32 17 4 8 8 9 5 6 3 10 17 8 5 18 11 11 5 10 8 14 11 13 8 5 5 3 4 1 7 9 5 15 11 17 16 16 14
45 36 59 64 36 28 48 38 39 4 8 11 6 8 7 8 8 3 9 3 8 7 7 7 11 11 12 7 9 5 6 10 6 7 5 5 6 7 6 12 11 15 17 15 16
45 35 62 50 37 38 46 42 18 4 6 8 9 12 11 5 3 5 9 3 2 4 2 5 2 10 9 6 14 8 4 4 4 2 11 21 9 8 10 7 8 9 14 15 15
35 42 65 47 26 49 46 18 9 10 1 9 13 16 18 10 5 7 18 17 12 9 15 5 7 3 1 6 4 9 5 3 5 5 10 7 8 21 7 8 11 15 13 14 11
48 51 54 40 51 51 37 15 8 5 8 4 13 17 18 16 6 4 13 12 20 4 6 10 5 13 6 7 2 15 13 4 6 5 6 3 8 8 11 17 17 15 14 8 9
48 53 44 46 54 51 17 16 9 8 8 13 22 20 7 10 8 5 8 12 16 10 7 6 7 1 6 7 10 4 15 5 3 2 2 5 9 6 8 9 9 15 16 15 10
42 25 26 57 56 32 16 11 5 6 8 17 6 11 16 21 8 12 12 8 6 17 2 3 1 2 3 5 9 8 7 5 6 5 6 6 6 8 1 10 12 17 16 11 8
25 10 35 57 52 14 18 5 5 3 3 7 5 6 9 16 10 14 11 1 8 8 8 3 3 3 3 8 13 7 7 6 2 4 4 4 8 8 16 14 15 17 9 9 9
4 5 48 58 13 10 14 10 5 5 5 5 5 4 9 17 7 12 9 7 9 11 14 10 2 4 8 4 7 14 18 14 6 6 3 1 13 5 6 8 8 14 9 6 6
7 12 40 44 8 12 7 6 4 5 4 5 4 3 3 9 5 5 7 1 5 13 9 10 6 5 3 3 3 9 12 14 21 5 16 3 19 4 5 8 7 8 7 5 5
9 10 9 3 2 17 16 11 7 4 4 5 6 5 6 5 6 7 5 1 1 7 11 15 4 11 18 6 4 8 15 18 14 8 25 18 36 13 8 5 8 8 8 7 7
3 5 3 8 7 15 7 6 14 6 3 3 4 5 9 5 3 4 4 1 1 6 5 5 7 7 14 9 3 2 9 18 22 27 10 30 27 28 14 9 10 7 7 6 6
5 6 3 5 18 20 10 13 19 5 5 2 10 7 4 8 7 8 7 4 5 5 7 5 3 3 14 12 19 18 13 13 25 27 24 32 28 18 8 9 8 9 8 10 9
3 4 6 13 13 14 5 13 8 9 9 5 11 7 3 6 7 7 5 3 4 4 5 5 4 4 7 5 7 11 32 23 17 17 22 22 36 9 13 12 14 10 11 13 10
Wind_Direction
221 220 220 223 223 218 214 214 215 211 208 209 207 206 207 202 200 196 205 220 208 220 224 255 297 359 32 49 27 102 63 186 187 137 296 318 165 27 58 114 51 1 155 241 165
221 219 218 218 223 222 216 214 212 213 208 206 207 207 201 201 192 223 206 207 203 205 186 182 100 25 33 359 13 101 141 215 186 157 175 279 251 161 116 121 39 316 352 155 164
219 217 218 215 216 221 220 214 210 212 209 203 203 204 199 193 83 241 215 209 205 200 212 183 138 71 52 342 359 140 193 173 253 138 63 330 59 343 128 243 211 198 176 153 161
221 217 216 212 212 214 221 217 209 205 206 203 198 197 193 176 212 220 218 212 198 183 173 145 76 108 134 209 256 200 257 193 253 358 48 344 314 288 191 235 278 198 161 164 175
221 216 217 210 207 210 214 219 211 203 203 202 203 189 178 184 241 185 186 200 190 183 186 148 136 135 182 200 148 216 259 235 250 312 307 331 257 241 247 284 43 136 155 178 186
220 218 215 214 205 204 207 214 212 201 198 201 195 193 162 210 213 207 256 187 187 184 185 166 183 188 130 186 185 270 255 294 307 330 302 286 285 38 248 140 130 161 178 190 193
218 218 213 214 206 200 203 207 211 201 197 198 194 193 188 192 195 214 168 183 182 178 148 190 135 155 127 161 230 223 302 294 265 262 271 165 294 237 230 136 173 201 196 199 209
215 216 211 209 203 200 199 203 205 202 194 194 193 177 233 203 216 185 165 179 189 191 110 187 136 110 161 251 57 140 44 211 273 183 241 169 256 234 189 154 204 204 222 221 221
218 210 209 205 203 198 194 197 195 198 193 187 180 174 208 177 181 190 182 170 176 183 193 76 144 132 85 132 42 259 204 210 305 206 178 191 257 262 199 182 209 213 212 218 231
236 207 204 200 198 195 185 187 181 180 179 167 136 167 194 196 176 187 172 177 140 132 80 87 107 144 107 165 204 193 201 208 207 246 196 235 257 268 306 226 214 218 223 215 218
233 245 199 192 190 187 174 160 131 148 187 190 186 182 144 141 174 183 188 149 100 75 160 187 179 209 198 166 297 160 184 207 227 244 180 227 251 254 253 254 255 241 230 227 223
235 221 193 185 186 180 165 182 179 192 178 230 178 133 140 142 157 207 184 156 153 182 127 156 221 200 142 153 172 21 140 263 290 261 179 261 260 254 238 245 228 236 239 231 219
217 211 190 181 178 168 170 186 166 141 158 202 153 178 165 158 163 186 165 147 167 191 195 202 261 173 163 161 205 214 216 203 248 338 248 296 272 266 246 239 243 241 236 234 222
212 210 186 174 166 167 169 173 159 155 106 172 172 201 149 138 176 165 179 150 188 201 178 226 231 175 183 210 183 232 173 189 251 312 246 95 283 262 256 238 233 243 235 230 231
204 207 181 172 160 170 172 168 162 111 161 170 164 165 138 161 138 221 169 72 162 157 164 206 174 179 198 181 159 228 170 199 224 251 330 241 273 270 222 241 240 245 247 238 231
207 212 175 168 158 165 164 166 151 116 229 170 141 168 146 173 142 121 169 84 127 145 284 200 54 184 191 167 186 147 80 60 63 176 254 244 216 247 239 211 252 241 246 245 233
188 210 171 163 158 159 161 153 154 191 332 150 168 165 170 167 138 163 183 185 182 184 208 178 202 335 43 166 142 176 144 215 215 201 239 189 209 244 271 279 249 258 253 248 239
195 197 167 161 154 156 163 152 187 151 190 195 152 150 184 150 182 143 163 200 212 184 174 204 205 196 192 208 150 196 195 205 209 198 254 124 229 243 220 237 244 244 253 264 249
190 161 155 151 153 159 158 171 173 176 167 146 143 163 142 176 150 134 184 203 205 187 176 176 237 105 200 168 160 174 213 200 358 124 26 219 277 289 255 262 260 259 253 254 245
197 143 150 152 156 162 162 158 116 153 134 136 139 169 176 173 145 180 169 195 183 189 120 185 223 181 210 140 212 169 140 190 210 219 246 246 264 237 241 243 254 261 250 242 240
137 130 150 150 158 164 172 131 127 137 101 139 140 133 167 177 163 184 188 10 162 151 173 107 135 267 146 207 192 192 207 225 327 175 218 269 257 210 215 222 231 246 276 247 247
122 121 147 148 161 168 170 138 115 125 69 91 102 98 148 167 168 185 188 165 181 150 195 190 201 215 219 215 226 234 216 198 211 207 261 31 264 177 216 266 264 270 269 243 226
111 114 145 153 154 157 132 107 106 129 132 138 121 144 136 149 137 166 155 143 168 173 166 161 215 238 303 298 217 214 223 242 235 291 243 168 255 202 234 253 256 257 242 215 214
121 130 133 91 100 144 145 143 119 89 100 102 111 86 98 95 17 154 152 40 80 193 174 166 185 210 232 236 170 203 219 222 244 230 244 240 263 250 267 286 294 274 251 207 192
52 114 107 146 143 134 101 124 136 125 65 139 53 133 132 117 83 128 133 108 306 200 203 213 218 226 244 237 228 312 223 209 215 232 248 248 253 253 248 257 263 254 277 244 246
112 138 66 105 141 137 136 177 152 116 137 166 123 139 153 144 174 176 132 151 183 168 185 188 251 228 260 262 256 247 237 248 222 226 234 245 260 254 236 217 241 232 228 243 231
72 64 99 132 146 141 175 164 152 122 17 121 128 112 167 111 114 142 114 129 76 165 162 157 181 234 264 239 313 246 236 236 250 246 229 242 245 270 249 228 227 233 211 227 233